{"data":{"norad_id":47171,"epoch":"2026-05-25T01:30:45.014400Z","epoch_age_seconds":59742,"freshness":"FRESH","line1":"1 47171U 20088BB  26145.06302100  .00069689  00000+0  68877-3 0  9994","line2":"2 47171  53.0469 269.5615 0002740 299.8578  60.2164 15.65263938304042","mean_motion":15.65263938,"eccentricity":0.000274,"inclination_deg":53.0469,"raan_deg":269.5615,"arg_perigee_deg":299.8578,"mean_anomaly_deg":60.2164,"bstar":0.00068877,"rev_number":30404,"period_min":91.997264170025,"perigee_km":370.6301152613,"apogee_km":374.32945325908,"semimajor_km":6750.6167842602,"source":"CELESTRAK","updated_at":"2026-05-25T13:38:16.522761Z"}}